TA1SW-13 Weather Reports


time (UTC)temp
C
wind
direction
speed
KPH
gust
KPH
rain 1hr
cm
rain 24hr
cm
rain mn
cm
humidity
%
barometer
mb
20260906082002 28 0 0.0 0.0 0.00 0.00 0.00 50 1002.9
20260906080006 28 0 0.0 0.0 0.00 0.00 0.00 50 1002.8
20260906074003 28 0 0.0 0.0 0.00 0.00 0.00 49 1002.7
20260906072002 28 0 0.0 0.0 0.00 0.00 0.00 49 1002.6
20260906070003 28 0 0.0 0.0 0.00 0.00 0.00 49 1002.3
20260906064003 28 0 0.0 0.0 0.00 0.00 0.00 48 1002.2
20260906062002 28 0 0.0 0.0 0.00 0.00 0.00 48 1002.0
20260906060002 28 0 0.0 0.0 0.00 0.00 0.00 47 1001.9
20260906054003 28 0 0.0 0.0 0.00 0.00 0.00 46 1001.9
20260906052003 28 0 0.0 0.0 0.00 0.00 0.00 45 1001.6
20260906050003 27 0 0.0 0.0 0.00 0.00 0.00 45 1001.6
20260906044002 27 0 0.0 0.0 0.00 0.00 0.00 45 1001.6
20260906042003 27 0 0.0 0.0 0.00 0.00 0.00 45 1001.4
20260906040002 27 0 0.0 0.0 0.00 0.00 0.00 45 1001.4
20260906034002 27 0 0.0 0.0 0.00 0.00 0.00 45 1001.2
20260906032002 27 0 0.0 0.0 0.00 0.00 0.00 45 1001.0
20260906030005 27 0 0.0 0.0 0.00 0.00 0.00 45 1000.9
20260906024002 27 0 0.0 0.0 0.00 0.00 0.00 44 1000.7
20260906022002 27 0 0.0 0.0 0.00 0.00 0.00 44 1000.7
20260906020004 27 0 0.0 0.0 0.00 0.00 0.00 45 1000.8
20260906014002 27 0 0.0 0.0 0.00 0.00 0.00 45 1000.8
20260906012002 27 0 0.0 0.0 0.00 0.00 0.00 45 1001.0
20260906010003 27 0 0.0 0.0 0.00 0.00 0.00 45 1000.9
20260906004003 27 0 0.0 0.0 0.00 0.00 0.00 45 1000.7
20260906002003 27 0 0.0 0.0 0.00 0.00 0.00 45 1000.8
20260906000002 27 0 0.0 0.0 0.00 0.00 0.00 45 1000.7
20260905234002 27 0 0.0 0.0 0.00 0.00 0.00 45 1000.8
20260905232002 27 0 0.0 0.0 0.00 0.00 0.00 45 1000.8
20260905230003 27 0 0.0 0.0 0.00 0.00 0.00 45 1000.9
20260905224002 27 0 0.0 0.0 0.00 0.00 0.00 46 1001.0
20260905222003 27 0 0.0 0.0 0.00 0.00 0.00 47 1001.2
20260905220003 27 0 0.0 0.0 0.00 0.00 0.00 47 1001.3
20260905214003 26 0 0.0 0.0 0.00 0.00 0.00 50 1001.3
20260905212003 27 0 0.0 0.0 0.00 0.00 0.00 49 1001.4
20260905210003 27 0 0.0 0.0 0.00 0.00 0.00 50 1001.5
20260905204003 27 0 0.0 0.0 0.00 0.00 0.00 48 1001.4
20260905202002 27 0 0.0 0.0 0.00 0.00 0.00 48 1001.5
20260905200003 27 0 0.0 0.0 0.00 0.00 0.00 47 1001.5
20260905194002 28 0 0.0 0.0 0.00 0.00 0.00 47 1001.6
20260905192003 28 0 0.0 0.0 0.00 0.00 0.00 47 1001.7
20260905190002 27 0 0.0 0.0 0.00 0.00 0.00 49 1001.7
20260905184003 27 0 0.0 0.0 0.00 0.00 0.00 47 1001.8
20260905182003 28 0 0.0 0.0 0.00 0.00 0.00 45 1001.9
20260905180004 28 0 0.0 0.0 0.00 0.00 0.00 43 1001.9
20260905174003 28 0 0.0 0.0 0.00 0.00 0.00 45 1001.7
20260905172002 28 0 0.0 0.0 0.00 0.00 0.00 43 1001.4
20260905170003 28 0 0.0 0.0 0.00 0.00 0.00 40 1001.5
20260905164003 29 0 0.0 0.0 0.00 0.00 0.00 37 1001.3
20260905162002 29 0 0.0 0.0 0.00 0.00 0.00 37 1001.1
20260905160002 30 0 0.0 0.0 0.00 0.00 0.00 36 1001.1
20260905154002 30 0 0.0 0.0 0.00 0.00 0.00 35 1001.3
20260905152003 30 0 0.0 0.0 0.00 0.00 0.00 34 1001.1
20260905150005 30 0 0.0 0.0 0.00 0.00 0.00 34 1001.3
20260905144003 30 0 0.0 0.0 0.00 0.00 0.00 33 1001.4
20260905142002 30 0 0.0 0.0 0.00 0.00 0.00 33 1001.4
20260905140003 30 0 0.0 0.0 0.00 0.00 0.00 32 1001.4
20260905134002 30 0 0.0 0.0 0.00 0.00 0.00 33 1001.6
20260905132003 30 0 0.0 0.0 0.00 0.00 0.00 34 1001.7
20260905130003 30 0 0.0 0.0 0.00 0.00 0.00 33 1001.7
20260905124003 30 0 0.0 0.0 0.00 0.00 0.00 35 1001.9
20260905122002 30 0 0.0 0.0 0.00 0.00 0.00 34 1002.1
20260905120003 30 0 0.0 0.0 0.00 0.00 0.00 36 1002.2
20260905114003 29 0 0.0 0.0 0.00 0.00 0.00 37 1002.4
20260905112002 29 0 0.0 0.0 0.00 0.00 0.00 38 1002.5
20260905110002 29 0 0.0 0.0 0.00 0.00 0.00 39 1002.6
20260905104003 29 0 0.0 0.0 0.00 0.00 0.00 42 1002.6
20260905102002 28 0 0.0 0.0 0.00 0.00 0.00 43 1002.5
20260905100004 28 0 0.0 0.0 0.00 0.00 0.00 43 1002.7
20260905094003 28 0 0.0 0.0 0.00 0.00 0.00 45 1002.7
20260905092003 28 0 0.0 0.0 0.00 0.00 0.00 45 1002.9
20260905090005 28 0 0.0 0.0 0.00 0.00 0.00 46 1003.0
20260905084003 27 0 0.0 0.0 0.00 0.00 0.00 47 1003.1